St. George, AK

11:56 AM AKDT on March 25, 2017 (GMT -0800)
Saint George

Weather History for PAPB - March, 2014

Change the Weather History Date:

Thursday, March 20, 2014

  Actual Average Record
Temperature  
Mean Temperature 31 °F -  
Max Temperature 32 °F 29 °F 39 °F (2005)
Min Temperature 30 °F 23 °F 0 °F (2008)
Degree Days  
Heating Degree Days 34    
Moisture  
Dew Point 27 °F    
Average Humidity 84    
Maximum Humidity 88    
Minimum Humidity 76    
Precipitation  
Precipitation 0.00 in - - ()
Sea Level Pressure  
Sea Level Pressure 29.93 in    
Wind  
Wind Speed 24 mph (East)    
Max Wind Speed 30 mph    
Max Gust Speed 39 mph    
Visibility 9 miles    
Events Snow    
Averages and records for this station are not official NWS values.
T = Trace of Precipitation, MM = Missing Value Source: NWS Daily Summary

Daily Weather History Graph

Daily Weather History Graph

Search for Another Location

Airport or City:

Trip Planner

Search our weather history database for the weather conditions in past years. The results will help you decide how hot, cold, wet, or windy it might be!

Date:

Astronomy

Mar. 20, 2014 Rise Set
Actual Time 9:19 AM AKDT 9:33 PM AKDT
Civil Twilight 8:42 AM AKDT 10:11 PM AKDT
Nautical Twilight 7:57 AM AKDT 10:56 PM AKDT
Astronomical Twilight 7:09 AM AKDT 11:44 PM AKDT
Moon 1:46 AM AKDT (3/20) 10:49 AM AKDT (3/20)
Length of Visible Light 13h 28m
Length of Day
12h 13m
Waning Gibbous, 83% of the Moon is Illuminated
Mar 20
Waning Gibbous
Mar 23
Last Quarter
Mar 30
New
Apr 7
First Quarter
Apr 14
Full

Hourly Weather History & Observations

Time (AKDT) Temp. Windchill Dew Point Humidity Pressure Visibility Wind Dir Wind Speed Gust Speed Precip Events Conditions
12:53 AM 32.0 °F 17.6 °F 28.0 °F 85% 29.90 in 10.0 mi East 29.9 mph 39.1 mph N/A   Partly Cloudy
1:53 AM 32.0 °F 17.6 °F 28.0 °F 85% 29.90 in 10.0 mi East 29.9 mph - N/A   Scattered Clouds
2:06 AM 32.0 °F 18.4 °F 28.0 °F 85% 29.94 in 10.0 mi East 26.5 mph 35.7 mph N/A   Mostly Cloudy
2:30 AM 32.0 °F 18.6 °F 28.0 °F 85% 29.94 in 10.0 mi East 25.3 mph 35.7 mph N/A   Overcast
2:41 AM 32.0 °F 18.4 °F 28.0 °F 85% 29.94 in 10.0 mi East 26.5 mph - N/A   Overcast
2:53 AM 32.0 °F 18.6 °F 28.0 °F 85% 29.90 in 10.0 mi East 25.3 mph - N/A   Overcast
3:53 AM 32.0 °F 18.4 °F 28.0 °F 85% 29.90 in 10.0 mi East 26.5 mph - N/A   Mostly Cloudy
4:46 AM 32.0 °F 18.4 °F 28.0 °F 85% 29.93 in 10.0 mi East 26.5 mph - 0.00 in   Overcast
4:53 AM 32.0 °F 18.6 °F 28.0 °F 85% 29.90 in 10.0 mi East 25.3 mph 32.2 mph 0.00 in   Overcast
5:20 AM 32.0 °F 18.9 °F 28.0 °F 85% 29.93 in 10.0 mi East 24.2 mph - 0.00 in   Overcast
5:33 AM 32.0 °F 19.5 °F 28.0 °F 85% 29.94 in 10.0 mi East 21.9 mph 29.9 mph 0.00 in   Overcast
5:53 AM 32.0 °F 19.5 °F 28.0 °F 85% 29.91 in 10.0 mi East 21.9 mph - 0.00 in   Overcast
6:53 AM 32.0 °F 20.5 °F 28.0 °F 85% 29.91 in 7.0 mi East 18.4 mph - 0.00 in Snow Light Snow
7:07 AM 32.0 °F 20.1 °F 28.9 °F 88% 29.95 in 4.0 mi East 19.6 mph - 0.00 in Snow Light Snow
7:15 AM 32.0 °F 21.2 °F 28.9 °F 88% 29.95 in 2.5 mi ENE 16.1 mph - 0.00 in Snow Light Snow
7:20 AM 32.0 °F 20.8 °F 28.9 °F 88% 29.95 in 3.0 mi East 17.3 mph - 0.00 in Snow Light Snow
7:53 AM 32.0 °F 20.5 °F 28.0 °F 85% 29.92 in 10.0 mi ENE 18.4 mph - 0.00 in   Overcast
8:53 AM 30.9 °F 18.7 °F 27.0 °F 85% 29.92 in 10.0 mi ENE 19.6 mph - N/A   Overcast
9:53 AM 30.9 °F 19.4 °F 27.0 °F 85% 29.92 in 10.0 mi East 17.3 mph - N/A   Overcast
10:53 AM 30.9 °F 18.4 °F 27.0 °F 85% 29.93 in 10.0 mi East 20.7 mph - N/A   Overcast
11:53 AM 30.9 °F 18.4 °F 27.0 °F 85% 29.93 in 10.0 mi East 20.7 mph - N/A   Overcast
12:53 PM 30.9 °F 18.4 °F 27.0 °F 85% 29.94 in 10.0 mi East 20.7 mph - N/A   Overcast
1:53 PM 30.9 °F 18.4 °F 27.0 °F 85% 29.94 in 10.0 mi East 20.7 mph - N/A   Overcast
2:53 PM 30.9 °F 17.5 °F 27.0 °F 85% 29.93 in 10.0 mi East 24.2 mph - N/A   Overcast
3:53 PM 32.0 °F 19.2 °F 27.0 °F 82% 29.92 in 10.0 mi East 23.0 mph 28.8 mph N/A   Overcast
4:53 PM 30.9 °F 18.4 °F 26.1 °F 82% 29.92 in 10.0 mi East 20.7 mph - N/A   Overcast
5:33 PM 30.9 °F - 26.1 °F 82% 29.95 in - North - - N/A   Unknown
5:53 PM 30.9 °F 18.4 °F 27.0 °F 85% 29.92 in 10.0 mi East 20.7 mph - N/A   Unknown
6:05 PM 30.9 °F 19.1 °F 26.1 °F 82% 29.95 in 10.0 mi East 18.4 mph - N/A   Overcast
6:53 PM 30.9 °F 18.7 °F 26.1 °F 82% 29.91 in 10.0 mi East 19.6 mph 28.8 mph N/A   Overcast
7:39 PM 30.0 °F 17.5 °F 25.0 °F 82% 29.94 in 10.0 mi East 19.6 mph 27.6 mph N/A   Overcast
7:53 PM 30.0 °F 16.3 °F 26.1 °F 85% 29.91 in 10.0 mi East 24.2 mph 31.1 mph N/A   Overcast
8:53 PM 30.9 °F 18.4 °F 26.1 °F 82% 29.91 in 10.0 mi East 20.7 mph 28.8 mph N/A   Overcast
9:53 PM 30.9 °F 18.7 °F 24.1 °F 76% 29.92 in 10.0 mi East 19.6 mph - N/A   Overcast
10:53 PM 30.9 °F 16.9 °F 25.0 °F 79% 29.92 in 10.0 mi East 26.5 mph 29.9 mph N/A   Overcast
11:53 PM 30.9 °F 18.1 °F 25.0 °F 79% 29.92 in 10.0 mi East 21.9 mph 32.2 mph N/A   Overcast